Weather History for Soldotna, AK

Change the Weather History Date:

Friday, December 7, 2012

  Actual Average Record
Temperature  
Mean Temperature -3 °F -  
Max Temperature 5 °F 22 °F 44 °F (1960)
Min Temperature -11 °F 7 °F -28 °F (1962)
Degree Days  
Heating Degree Days 68    
Moisture  
Dew Point -6 °F    
Average Humidity 89    
Maximum Humidity 100    
Minimum Humidity 70    
Precipitation  
Precipitation 0.00 in - - ()
Sea Level Pressure  
Sea Level Pressure 29.90 in    
Wind  
Wind Speed 5 mph (East)    
Max Wind Speed 7 mph    
Max Gust Speed -    
Visibility 8 miles    
Events      
Averages and records for this station are not official NWS values.
T = Trace of Precipitation, MM = Missing Value Source: NWS Daily Summary

Daily Weather History Graph

Daily Weather History Graph

Search for Another Location

Airport:

Trip Planner

Search our weather history database for the weather conditions in past years. The results will help you decide how hot, cold, wet, or windy it might be!

Date:

Astronomy

Dec. 07, 2012 Rise Set
Actual Time 9:55 AM AKST 3:55 PM AKST
Civil Twilight 8:58 AM AKST 4:53 PM AKST
Nautical Twilight 8:01 AM AKST 5:50 PM AKST
Astronomical Twilight 7:09 AM AKST 6:42 PM AKST
Moon 1:53 AM AKST (12/7) 1:22 PM AKST (12/7)
Length of Visible Light 7h 55m
Length of Day
5h 59m
Last Quarter, 37% of the Moon is Illuminated
Dec 7
Last Quarter
Dec 12
New
Dec 19
First Quarter
Dec 28
Full
Jan 4
Last Quarter

Hourly Weather History & Observations

Time (AKST) Temp. Windchill Dew Point Humidity Pressure Visibility Wind Dir Wind Speed Gust Speed Precip Events Conditions
12:16 AM -7.6 °F -18.8 °F -11.2 °F 84% 29.90 in 10.0 mi ENE 4.6 mph - N/A   Clear
12:36 AM -9.4 °F -18.6 °F -11.2 °F 92% 29.90 in 10.0 mi ENE 3.5 mph - N/A   Clear
12:56 AM -9.4 °F -22.7 °F -13.0 °F 84% 29.89 in 10.0 mi ENE 5.8 mph - N/A   Clear
1:16 AM -9.4 °F -22.7 °F -11.2 °F 92% 29.90 in 10.0 mi ENE 5.8 mph - N/A   Clear
1:36 AM -9.4 °F -20.9 °F -14.8 °F 77% 29.90 in 10.0 mi ENE 4.6 mph - N/A   Clear
1:56 AM -11.2 °F -20.6 °F -14.8 °F 84% 29.91 in 10.0 mi ENE 3.5 mph - N/A   Clear
2:16 AM -9.4 °F -20.9 °F -11.2 °F 92% 29.91 in 10.0 mi ENE 4.6 mph - N/A   Clear
2:36 AM -9.4 °F -20.9 °F -14.8 °F 77% 29.90 in 10.0 mi ENE 4.6 mph - N/A   Clear
2:56 AM -9.4 °F -18.6 °F -11.2 °F 92% 29.91 in 10.0 mi ENE 3.5 mph - N/A   Clear
3:16 AM -9.4 °F -20.9 °F -14.8 °F 77% 29.91 in 10.0 mi ENE 4.6 mph - N/A   Clear
3:36 AM -9.4 °F -20.9 °F -14.8 °F 77% 29.91 in 10.0 mi East 4.6 mph - N/A   Clear
3:56 AM -9.4 °F -22.7 °F -14.8 °F 77% 29.91 in 10.0 mi ENE 5.8 mph - N/A   Clear
4:16 AM -9.4 °F -20.9 °F -13.0 °F 84% 29.91 in 10.0 mi East 4.6 mph - N/A   Clear
4:36 AM -9.4 °F -20.9 °F -13.0 °F 84% 29.90 in 10.0 mi ENE 4.6 mph - N/A   Clear
4:56 AM -9.4 °F -20.9 °F -14.8 °F 77% 29.90 in 10.0 mi ENE 4.6 mph - N/A   Clear
5:16 AM -9.4 °F -20.9 °F -14.8 °F 77% 29.90 in 10.0 mi ENE 4.6 mph - N/A   Clear
5:36 AM -11.2 °F -23.0 °F -14.8 °F 84% 29.90 in 10.0 mi East 4.6 mph - N/A   Clear
5:56 AM -9.4 °F -22.7 °F -13.0 °F 84% 29.89 in 10.0 mi ENE 5.8 mph - N/A   Clear
6:16 AM -11.2 °F -24.8 °F -14.8 °F 84% 29.89 in 10.0 mi East 5.8 mph - N/A   Clear
6:36 AM -11.2 °F -23.0 °F -14.8 °F 84% 29.90 in 10.0 mi ENE 4.6 mph - N/A   Clear
6:56 AM -11.2 °F -23.0 °F -14.8 °F 84% 29.90 in 10.0 mi ENE 4.6 mph - N/A   Clear
7:16 AM -11.2 °F -20.6 °F -14.8 °F 84% 29.90 in 10.0 mi ENE 3.5 mph - N/A   Clear
7:36 AM -11.2 °F -23.0 °F -16.6 °F 77% 29.89 in 10.0 mi East 4.6 mph - N/A   Clear
7:56 AM -11.2 °F -23.0 °F -16.6 °F 77% 29.89 in 10.0 mi East 4.6 mph - N/A   Clear
8:16 AM -11.2 °F -23.0 °F -14.8 °F 84% 29.89 in 10.0 mi ENE 4.6 mph - N/A   Clear
8:36 AM -11.2 °F -23.0 °F -14.8 °F 84% 29.90 in 10.0 mi ENE 4.6 mph - N/A   Clear
8:56 AM -11.2 °F -20.6 °F -16.6 °F 77% 29.90 in 10.0 mi ENE 3.5 mph - N/A   Clear
9:16 AM -11.2 °F -23.0 °F -18.4 °F 70% 29.90 in 10.0 mi ENE 4.6 mph - N/A   Clear
9:36 AM -11.2 °F -23.0 °F -14.8 °F 84% 29.91 in 10.0 mi East 4.6 mph - N/A   Clear
9:56 AM -11.2 °F -23.0 °F -14.8 °F 84% 29.91 in 10.0 mi ENE 4.6 mph - N/A   Clear
10:16 AM -11.2 °F -20.6 °F -14.8 °F 84% 29.92 in 10.0 mi NE 3.5 mph - N/A   Mostly Cloudy
10:36 AM -11.2 °F -20.6 °F -14.8 °F 84% 29.92 in 9.0 mi ENE 3.5 mph - N/A   Overcast
10:56 AM -9.4 °F - -9.4 °F 100% 29.92 in 4.0 mi Calm Calm - N/A   Overcast
11:16 AM -7.6 °F -16.5 °F -7.6 °F 100% 29.92 in 0.8 mi East 3.5 mph - N/A   Overcast
11:36 AM -2.2 °F -14.2 °F -2.2 °F 100% 29.92 in 0.2 mi East 5.8 mph - N/A   Overcast
11:56 AM -2.2 °F -15.6 °F -5.8 °F 85% 29.92 in 0.2 mi East 6.9 mph - N/A   Overcast
12:16 PM -0.4 °F -12.0 °F -0.4 °F 100% 29.92 in 0.2 mi ESE 5.8 mph - N/A   Overcast
12:36 PM -0.4 °F -12.0 °F -0.4 °F 100% 29.92 in 1.2 mi ESE 5.8 mph - N/A   Overcast
12:56 PM -0.4 °F -8.3 °F -2.2 °F 92% 29.92 in 1.5 mi East 3.5 mph - N/A   Overcast
1:16 PM 1.4 °F -8.3 °F -0.4 °F 92% 29.92 in 3.0 mi East 4.6 mph - N/A   Overcast
1:36 PM 1.4 °F -8.3 °F -0.4 °F 92% 29.92 in 2.0 mi ESE 4.6 mph - N/A   Overcast
1:56 PM 1.4 °F -9.9 °F -0.4 °F 92% 29.91 in 3.0 mi East 5.8 mph - N/A   Overcast
2:16 PM 1.4 °F -8.3 °F -0.4 °F 92% 29.91 in 5.0 mi East 4.6 mph - N/A   Overcast
2:36 PM 1.4 °F -9.9 °F -0.4 °F 92% 29.91 in 5.0 mi East 5.8 mph - N/A   Overcast
2:56 PM 1.4 °F -9.9 °F -0.4 °F 92% 29.91 in 4.0 mi East 5.8 mph - N/A   Overcast
3:16 PM 1.4 °F -9.9 °F 1.4 °F 100% 29.91 in 5.0 mi East 5.8 mph - N/A   Overcast
3:36 PM 1.4 °F -9.9 °F 1.4 °F 100% 29.90 in 8.0 mi East 5.8 mph - N/A   Mostly Cloudy
3:56 PM 3.2 °F -7.8 °F 1.4 °F 92% 29.90 in 10.0 mi East 5.8 mph - N/A   Mostly Cloudy
4:16 PM 3.2 °F -9.1 °F 1.4 °F 92% 29.90 in 8.0 mi East 6.9 mph - N/A   Overcast
4:36 PM 3.2 °F -7.8 °F 1.4 °F 92% 29.90 in 9.0 mi East 5.8 mph - N/A   Overcast
4:56 PM 5.0 °F -5.6 °F 3.2 °F 92% 29.90 in 10.0 mi East 5.8 mph - N/A   Overcast
5:16 PM 3.2 °F -7.8 °F 1.4 °F 92% 29.90 in 8.0 mi East 5.8 mph - N/A   Overcast
5:36 PM 3.2 °F -9.1 °F 3.2 °F 100% 29.90 in 8.0 mi East 6.9 mph - N/A   Overcast
5:56 PM 3.2 °F -6.2 °F 1.4 °F 92% 29.89 in 10.0 mi East 4.6 mph - N/A   Overcast
6:16 PM 3.2 °F -4.2 °F 1.4 °F 92% 29.90 in 10.0 mi East 3.5 mph - N/A   Overcast
6:36 PM 3.2 °F -4.2 °F 1.4 °F 92% 29.89 in 10.0 mi East 3.5 mph - N/A   Mostly Cloudy
6:56 PM 1.4 °F -8.3 °F -0.4 °F 92% 29.89 in 10.0 mi East 4.6 mph - N/A   Mostly Cloudy
7:16 PM 3.2 °F -4.2 °F 1.4 °F 92% 29.90 in 10.0 mi ENE 3.5 mph - N/A   Overcast
7:36 PM 1.4 °F -8.3 °F -2.2 °F 85% 29.89 in 10.0 mi East 4.6 mph - N/A   Mostly Cloudy
7:56 PM 3.2 °F -6.2 °F 1.4 °F 92% 29.90 in 10.0 mi East 4.6 mph - N/A   Overcast
8:16 PM 3.2 °F -7.8 °F 1.4 °F 92% 29.90 in 10.0 mi East 5.8 mph - N/A   Overcast
8:36 PM 3.2 °F -6.2 °F 1.4 °F 92% 29.89 in 10.0 mi East 4.6 mph - N/A   Overcast
8:56 PM 3.2 °F -4.2 °F 1.4 °F 92% 29.90 in 10.0 mi ESE 3.5 mph - N/A   Overcast
9:16 PM 3.2 °F -6.2 °F 3.2 °F 100% 29.90 in 10.0 mi East 4.6 mph - N/A   Overcast
9:36 PM 3.2 °F - 3.2 °F 100% 29.89 in 10.0 mi Calm Calm - N/A   Overcast
9:56 PM 3.2 °F -7.8 °F 1.4 °F 92% 29.90 in 10.0 mi East 5.8 mph - N/A   Overcast
10:16 PM 3.2 °F -7.8 °F 1.4 °F 92% 29.90 in 10.0 mi East 5.8 mph - N/A   Overcast
10:36 PM 5.0 °F -5.6 °F 3.2 °F 92% 29.90 in 5.0 mi East 5.8 mph - N/A   Overcast
11:16 PM 3.2 °F -9.1 °F 1.4 °F 92% 29.90 in 10.0 mi East 6.9 mph - N/A   Overcast
11:36 PM 3.2 °F -7.8 °F 1.4 °F 92% 29.91 in 10.0 mi ESE 5.8 mph - N/A   Overcast
11:56 PM 5.0 °F -4.1 °F 3.2 °F 92% 29.91 in 10.0 mi ESE 4.6 mph - N/A   Overcast